User: anonymous   Login
Location: Caltech
(34.1382°N, 118.1253°W)
Time: 22:19:04
(UTC-07:00)
Language:

OAO 2 Rocket - Orbit

View from above orbital plane
View from above orbital plane
View from above satellite
View from above satellite

Ground track
Ground track

The orbit data is extracted from the following two-line orbital elements,

1  3598U 68110B   17175.55804150 +.00000045 +00000-0 +14860-4 0  9992
2  3598 034.9943 295.5963 0050104 287.4807 072.0414 14.54313084546640
Epoch (UTC): 24 June 2017 13:23:34
Eccentricity: 0.0050104
inclination: 34.9943°
perigee height: 676 km
apogee height: 747 km
right ascension of ascending node: 295.5963°
argument of perigee: 287.4807°
revolutions per day: 14.54313084
mean anomaly at epoch: 72.0414°
orbit number at epoch: 54664

The dashed part of the orbit path shows where the satellite is in the earth's shadow,  

DLR